Torna al catalogo

KUIPER-00066

AttivoComunicazioniLEO
NORAD 64526·PAYLOAD·🇺🇸 United States

Lanciato Jun 23, 2025 da Cape Canaveral Space Force Station

Loading…

Prossimi Passaggi (prossime 24 ore)

TLE

AggiornatoSource: CelesTrak SupGP

Epoca: Sep 14, 2026, 19:57 UTC

1 64526C 25134AC  26257.83131944  .00005311  00000+0  69529-3 0  2573
2 64526  51.9016  61.6292 0000644 106.1331  24.1548 14.79923663    17

Traccia KUIPER-00066 in tempo reale con AllMySat

Download on the App Store